User: anonymous   Login
Location: CNYAC Observatory
(43.2150°N, 74.9500°W)
Time: 22:26:03
(UTC-04:00)
Language:

Cosmos 1300 Rocket - Orbit

View from above orbital plane
View from above orbital plane
View from above satellite
View from above satellite

Ground track
Ground track

The orbit data is extracted from the following two-line orbital elements,

1 12786U 81082B   15149.71554028  .00000242  00000-0  25888-4 0  9998
2 12786 082.4875 313.9786 0017019 204.0321 156.0102 14.84464160823610
Epoch (UTC): 29 May 2015 17:10:22
Eccentricity: 0.0017019
inclination: 82.4875°
perigee height: 603 km
apogee height: 627 km
right ascension of ascending node: 313.9786°
argument of perigee: 204.0321°
revolutions per day: 14.84464160
mean anomaly at epoch: 156.0102°
orbit number at epoch: 82361

The dashed part of the orbit path shows where the satellite is in the earth's shadow,  

DLR